Location: Plock
(52.5500°N, 19.7000°E)
Time: 06:45:57
(UTC+02:00)

ISS - Visible Passes

Search period start: 25 September 2018 00:00
Search period end: 05 October 2018 00:00
Orbit: 403 x 408 km, 51.6° (Epoch: 25 September)

Date Brightness Start Highest point End Pass type
(mag) Time Alt. Az. Time Alt. Az. Time Alt. Az.
25 Sep -2.4 19:29:00 10° SSW 19:31:39 22° SSE 19:33:23 15° ESE visible
25 Sep -1.9 21:04:31 10° WSW 21:06:04 25° WSW 21:06:04 25° WSW visible
26 Sep -3.6 20:12:46 10° WSW 20:15:58 49° SSE 20:16:23 45° SE visible
26 Sep -0.5 21:49:03 10° W 21:49:04 10° W 21:49:04 10° W visible
27 Sep -3.0 19:21:07 10° SW 19:24:11 36° SSE 19:26:37 14° E visible
27 Sep -2.5 20:57:11 10° W 20:59:17 36° WSW 20:59:17 36° WSW visible
28 Sep -3.8 20:05:20 10° WSW 20:08:37 67° S 20:09:26 45° ESE visible
28 Sep -0.6 21:41:46 10° W 21:42:06 12° W 21:42:06 12° W visible
29 Sep -3.5 19:13:31 10° WSW 19:16:45 54° SSE 19:19:31 13° E visible
29 Sep -2.7 20:49:52 10° W 20:52:11 42° W 20:52:11 42° W visible
30 Sep -3.9 19:57:58 10° W 20:01:16 77° S 20:02:14 42° E visible
30 Sep -0.7 21:34:26 10° W 21:34:54 13° W 21:34:54 13° W visible
01 Oct -3.7 19:06:03 10° WSW 19:09:21 71° S 19:12:15 13° E visible
01 Oct -2.8 20:42:30 10° W 20:44:55 43° WSW 20:44:55 43° WSW visible
02 Oct -3.8 19:50:34 10° W 19:53:52 75° S 19:54:55 40° ESE visible
02 Oct -0.7 21:27:06 10° W 21:27:35 13° W 21:27:35 13° W visible
03 Oct -3.8 18:58:37 10° W 19:01:56 78° S 19:04:55 12° E visible
03 Oct -2.7 20:35:06 10° W 20:37:35 39° WSW 20:37:35 39° WSW visible
04 Oct -3.6 19:43:07 10° W 19:46:24 61° SSW 19:47:35 34° SE visible
04 Oct -0.6 21:19:54 10° W 21:20:15 12° W 21:20:15 12° W visible
